Regional Weather Roundup
Issued by NWS Newport/Morehead, NC

Current Version | Previous Version | Graphics & Text | Print | Product List | Glossary Off
Versions: 1 2 3 4 5 6 7 8 9 10 11 12 13 14 15 16 17 18 19 20 21 22 23 24 25 26 27 28 29 30 31 32 33 34 35 36 37 38 39 40 41 42 43 44 45 46 47 48 49 50

000
ASUS42 KMHX 010612
RWRMHX
WEATHER ROUNDUP FOR EASTERN NORTH CAROLINA
NATIONAL WEATHER SERVICE NEWPORT/MOREHEAD CITY NC
100 AM EST SUN MAR 01 2015

NOTE: "FAIR" INDICATES FEW OR NO CLOUDS BELOW 12,000 FEET
WITH NO SIGNIFICANT WEATHER AND/OR OBSTRUCTIONS TO VISIBILITY

NCZ015>017-031-032-045>047-102-103-010700-
NORTH COAST

CITY           SKY/WX    TMP DP  RH WIND       PRES   REMARKS
EDENTON        PTCLDY    28  21  74 N6        30.69S
ELIZABETH CITY CLEAR     28  21  75 N9        30.69F
KITTY HAWK     CLEAR     34  29  83 N8        30.65F
MANTEO         MOCLDY    34  28  80 N14       30.66F

$$

NCZ045>047-081-094-103-104-010700-
CENTRAL COAST

CITY           SKY/WX    TMP DP  RH WIND       PRES   REMARKS
FRISCO         CLEAR     36  33  89 NE12G20   30.63F
SWANQUARTER      N/A     32 N/A N/A N9G16     30.59F

$$

NCZ095-097-098-100-101-010700-
SOUTHERN COAST

CITY           SKY/WX    TMP DP  RH WIND       PRES   REMARKS
BEAUFORT       MOCLDY    35  29  78 NE12G17   30.60F
CEDAR ISLAND     N/A     36 N/A N/A N14G21    30.68S
JACKSONVILLE     N/A     35  25  66 N9        30.63F
PINEY ISLAND     N/A    N/A N/A N/A MISG      30.63F
WILMINGTON     CLOUDY    38  25  59 NE12      30.61F


$$

NCZ011>013-027>030-043-044-078>080-089-090>093-098-010700-
COASTAL PLAIN

CITY           SKY/WX    TMP DP  RH WIND       PRES   REMARKS
AHOSKIE        CLEAR     26  18  72 N5        30.70F
CLINTON        CLOUDY    35  24  63 NE8       30.64S
ELIZABETHTOWN  CLOUDY    37  24  61 N3        30.62S
GOLDSBORO      CLOUDY    32  27  81 NE8       30.63F
GREENVILLE     CLOUDY    32  21  64 NE6       30.66F
HAVELOCK       MOCLDY    34  25  69 N10       30.64F
KENANSVILLE    CLOUDY    33  22  63 NE3       30.66S
KINSTON        CLOUDY    32  21  64 NE7       30.67F
NEW BERN       PTCLDY    32  23  69 N7        30.66F
RICHLANDS      CLOUDY    34  21  60 N10       30.65S
ROCKY MOUNT    MOCLDY    30  18  60 NE7       30.68F
WASHINGTON     MOCLDY    30  20  68 NE5       30.68S
WHITEVILLE     LGT RAIN  38  24  57 N5        30.60S

$$

AMZ130-135-150-152-154-156-158-170-250-252-270-ANZ085-086-088-633-658-670-010700-
MARINE OBSERVATIONS

STATION/POSITION TIME  TEMP    WIND        PRES    WAVE   SWELL
                       AIR SEA DIR/SP/G            HT/PER HT/PER
                 (UTC) (F)     (DEG/KT/KT) (MB)    (FT/S) (FT/S)
CHESAPEAKE LIGHT 0500   31      40/ 13/ 13 1041.0
64 E VA BEACH    0550   45 64   50/ 12/ 17 1038.2    4/10   3/10
DUCK             0500   34 34   20/ 15/ 17 1038.5
2 E DUCK         0511      34                N/A     4/ 6
10 NE DUCK       0522      37                N/A     5/10
OREGON INLET     0500   35 38  360/ 12/ 16 1038.8
HATTERAS CG      0500   37 39   20/ 18/ 22 1038.0
CAPE LOOKOUT     0600   38      30/ 18/ 20 1036.2
BEAUFORT LAB     0500   35 41   20/ 11/ 15 1036.3
27 SE WRIGHTSVLE NOT AVBL
5 SE WRIGHTSVLE  NOT AVBL
225 S CAPE HAT   0550   66 70   70/ 21/ 25 1033.3   11/ 9   2/14
41 SE CHARLESTON 0550   58 67   30/ 23/ 29 1031.7   10/ 9   5/ 9

$$


USA.gov is the U.S. government's official web portal to all federal, state and local government web resources and services.